logo
Search for airport 
image banner adimage banner adimage banner ad
image banner ad

EDLP - Paderborn/Lippstadt

Located in Paderborn, Germany

ICAO - EDLP, IATA - PAD

Data provided by Airmate  

General information

Coordinates: N51°36'51" E8°36'59"
Elevation is 699 feet MSL.
Magnetic variation is 2.1000° East
Rated:
View ratings:
[VIEW]
View others Airports in North Rhine-Westphalia

Operational data

Special qualification required
Current time UTC:
Current local time:
Weather
METAR: EDLP 180120Z 15003KT 080V190 CAVOK 14/13 Q1015
TAF: TAF EDLP 172300Z 1800/1824 VRB03KT 9999 SCT040 BECMG 1808/1811 11006KT TEMPO 1812/1823 4000 SHRA BKN020CB PROB40 TEMPO 1814/1818 23020G35KT 2500 TSRA BKN014CB PROB40 TEMPO 1818/1821 23020G35KT 1500 +TSRA BKN006CB BECMG 1821/1824 4000 BR BKN006
View NOTAMs / SUP AIP / TFR affecting this airport [VIEW]
Communications frequencies: [VIEW]

Runways:

RWY identifierQFULength (ft)Width (ft)SurfaceLDA (ft)
0657°7152148ASPH7152
24237°7152148ASPH7152

Airport contact information

Address: Paderborn Germany

Handlers

Paderborn/Lippstadt Airport

Paderborn/Lippstadt Airport

Satellite view of EDLP